TimePST,TemperatureF,Dew PointF,Humidity,Sea Level PressureIn,VisibilityMPH,Wind Direction,Wind SpeedMPH,Gust SpeedMPH,PrecipitationIn,Events,Conditions,WindDirDegrees,DateUTC
12:00 AM,50.0,44.6,82,29.43,15.0,East,12.7,19.6,N/A,,Overcast,100,2012-11-30 08:00:00
1:00 AM,50.0,44.6,82,29.39,15.0,East,10.4,-,N/A,,Mostly Cloudy,100,2012-11-30 09:00:00
1:36 AM,50.0,-9999,N/A,-9999,15.0,ESE,15.0,-,N/A,Rain,Light Rain Showers,110,2012-11-30 09:36:00
2:00 AM,50.0,44.6,82,29.38,15.0,East,15.0,-,N/A,Rain,Light Rain Showers,100,2012-11-30 10:00:00
3:00 AM,48.2,44.6,87,29.37,15.0,East,19.6,-,N/A,Rain,Light Rain Showers,100,2012-11-30 11:00:00
3:47 AM,48.2,-9999,N/A,-9999,15.0,East,19.6,-,N/A,,Overcast,100,2012-11-30 11:47:00
4:00 AM,49,44,79,29.36,15,East,18.4,,,Rain,Light Rain Showers,100,2012-11-30 12:00:00
4:00 AM,50.0,44.6,82,29.36,15.0,East,17.3,-,N/A,,Overcast,100,2012-11-30 12:00:00
4:42 AM,48.2,-9999,N/A,-9999,15.0,ESE,16.1,21.9,N/A,Rain,Light Rain,110,2012-11-30 12:42:00
5:00 AM,48.2,44.6,87,29.36,12.0,ESE,16.1,-,N/A,Rain,Light Rain,110,2012-11-30 13:00:00
6:00 AM,46.4,44.6,93,29.34,12.0,East,17.3,23.0,N/A,,Overcast,100,2012-11-30 14:00:00
7:00 AM,48.2,44.6,87,29.33,12.0,East,15.0,-,N/A,,Mostly Cloudy,100,2012-11-30 15:00:00
7:46 AM,48.2,-9999,N/A,-9999,15.0,East,16.1,-,N/A,Rain,Light Rain Showers,100,2012-11-30 15:46:00
8:00 AM,48.2,44.6,87,29.34,6.0,ESE,13.8,-,N/A,Rain,Light Rain Showers,110,2012-11-30 16:00:00
9:00 AM,48.2,46.4,93,29.36,6.0,ESE,18.4,-,N/A,Rain,Light Rain,110,2012-11-30 17:00:00
9:13 AM,48.2,-9999,N/A,-9999,8.0,East,15.0,-,N/A,Rain,Light Rain,100,2012-11-30 17:13:00
10:00 AM,48,46,92,29.37,12,East,13.8,,,Rain,Light Rain,100,2012-11-30 18:00:00
10:00 AM,48.2,46.4,93,29.37,12.0,ESE,13.8,-,N/A,Rain,Light Rain,110,2012-11-30 18:00:00
10:27 AM,48.2,-9999,N/A,-9999,6.0,SW,2.3,-,N/A,Rain,Light Rain,220,2012-11-30 18:27:00
10:30 AM,48.2,-9999,N/A,-9999,2.5,Calm,Calm,-,N/A,Rain,Light Rain,0,2012-11-30 18:30:00
10:35 AM,48.2,-9999,N/A,-9999,2.5,South,3.5,-,N/A,Rain,Light Rain,170,2012-11-30 18:35:00
10:54 AM,48.2,-9999,N/A,-9999,12.0,East,8.1,-,N/A,Rain,Light Rain,90,2012-11-30 18:54:00
11:00 AM,48.2,46.4,93,29.39,15.0,East,8.1,-,N/A,Rain,Light Rain,90,2012-11-30 19:00:00
12:00 PM,50.0,48.2,94,29.37,15.0,ESE,15.0,-,N/A,Rain,Light Rain,110,2012-11-30 20:00:00
1:00 PM,50.0,48.2,94,29.37,12.0,ESE,13.8,-,N/A,Rain,Light Rain,110,2012-11-30 21:00:00
2:00 PM,50.0,48.2,94,29.38,12.0,ESE,11.5,-,N/A,Rain,Light Rain Showers,120,2012-11-30 22:00:00
2:43 PM,51.8,-9999,N/A,-9999,15.0,ESE,12.7,-,N/A,,Overcast,110,2012-11-30 22:43:00
3:00 PM,51.8,48.2,88,29.38,15.0,SE,6.9,17.3,N/A,,Overcast,130,2012-11-30 23:00:00
4:00 PM,50,47,88,29.39,15,ESE,10.4,,,,Partly Cloudy,110,2012-12-01 00:00:00
4:00 PM,50.0,48.2,94,29.39,15.0,ESE,10.4,-,N/A,,Overcast,120,2012-12-01 00:00:00
5:00 PM,50.0,46.4,87,29.39,15.0,ESE,16.1,-,N/A,,Overcast,120,2012-12-01 01:00:00
5:47 PM,50.0,-9999,N/A,-9999,10.0,ESE,16.1,21.9,N/A,Rain,Light Rain,120,2012-12-01 01:47:00
6:00 PM,50.0,48.2,94,29.39,8.0,ESE,15.0,20.7,N/A,Rain,Light Rain,120,2012-12-01 02:00:00
7:00 PM,50.0,48.2,94,29.38,8.0,ESE,17.3,-,N/A,Rain,Light Rain,110,2012-12-01 03:00:00
7:33 PM,50.0,-9999,N/A,-9999,6.0,ESE,16.1,-,N/A,Rain,Light Rain,110,2012-12-01 03:33:00
8:00 PM,50.0,48.2,94,29.38,10.0,ESE,18.4,-,N/A,Rain,Light Rain Showers,110,2012-12-01 04:00:00
9:00 PM,48.2,46.4,93,29.37,10.0,East,16.1,25.3,N/A,Rain,Light Rain Showers,100,2012-12-01 05:00:00
10:00 PM,47,45,92,29.37,7,East,17.3,,,Rain,Light Rain Showers,100,2012-12-01 06:00:00
10:00 PM,48.2,44.6,87,29.37,8.0,East,17.3,23.0,N/A,Rain,Light Rain Showers,100,2012-12-01 06:00:00
10:46 PM,46.4,-9999,N/A,-9999,12.0,East,16.1,21.9,N/A,,Overcast,90,2012-12-01 06:46:00
11:00 PM,46.4,44.6,93,29.37,12.0,East,18.4,-,N/A,,Overcast,100,2012-12-01 07:00:00
11:38 PM,46.4,-9999,N/A,-9999,8.0,East,16.1,-,N/A,Rain,Light Rain,100,2012-12-01 07:38:00